Tracking 25734 objects as of 26-May-2022
HD Live streaming from Space Station
objects crossing your sky now

COSMOS 2251 DEB

Track COSMOS 2251 DEB now!
10-day predictions


NORAD ID: 33821
Int'l Code: 1993-036BN
Perigee: 539.0 km
Apogee: 712.1 km
Inclination: 74.1 °
Period: 97.1 minutes
Semi major axis: 6996 km
RCS: 0.055 m2 (small)
Launch date: June 16, 1993
Source: Commonwealth of Independent States (former USSR) (CIS)
Launch site: PLESETSK MISSILE AND SPACE COMPLEX (PKMTR)

Note: This is SATELLITE DEBRIS
aabbcc
Your satellite tracking list
Your tracking list is empty




NASA's NSSDC Master Catalog

Two Line Element Set (TLE):
1 33821U 93036BN  22145.70047220  .00004168  00000-0  44712-3 0  9994
2 33821  74.0541 249.9034 0123674 277.3318 205.1279 14.83467005555790
Source of the keplerian elements: AFSPC